{"data":{"norad_id":23893,"epoch":"2026-09-19T19:25:15.201408Z","epoch_age_seconds":70819,"freshness":"FRESH","line1":"1 23893U 96029A   26262.80920372  .00000597  00000+0  11277-3 0  9991","line2":"2 23893  63.3177 304.3744 0855970  50.6833 316.6960 13.46508569118017","mean_motion":13.46508569,"eccentricity":0.085597,"inclination_deg":63.3177,"raan_deg":304.3744,"arg_perigee_deg":50.6833,"mean_anomaly_deg":316.696,"bstar":0.00011277,"rev_number":11801,"period_min":106.94324812722,"perigee_km":446.29853770589,"apogee_km":1723.9654060801,"semimajor_km":7463.268971893,"source":"CELESTRAK","updated_at":"2026-09-20T09:00:13.520869Z"}}